STARLINK-34560, 64700

Orbit data source: Space-Track

STARLINK-34560, 64700 is a payload satellite owned by SpaceX/Seattle (US) in LEO that was launched on Sat, 28 Jun 2025 UTC via an FALCON 9 launch vehicle from the Air Force Western Test Range (AFWTR). Payload-class satellites include a variety of spacecraft equipped with specific instruments for various scientific and technological missions. These include communications satellites like Starlink; space stations such as the ISS; scientific satellites like the Hubble; Earth observation satellites from companies like Planet Labs, Umbra, and HawkEye 360; GPS; miniature CubeSats for education and research; and military/defense satellites.

Not visible in the next 10 days
Identifier
64700, 2025-142E
Orbit
LEO
Last TLE update
9 hours ago
Origin
Manufacturer
SpaceX/Seattle
Mission
Operational spacecraft
Bus & Motor
STARLINK V2MO, Unknown motor
Mass
575 kg wet, ~530 kg dry
Launch date (UTC)
2025-06-28 (1 week ago)
Launch vehicle
FALCON 9
Launch site
Air Force Western Test Range (AFWTR)
Object type
Payload
Rocket body
Debris
Shape & HBR
Unknown
Radar Cross Section
RCS unknown

Expand to show TLE details & history

TLE from 9 hours ago
0 STARLINK-34560
1 64700U 25142E   25186.58335648 -.01075806  00000-0 -44271-2 0  9994
2 64700  69.9953 231.3429 0003788 277.4328  44.0074 15.88126760  2086
Epoch: 2025-07-05T14:00Z
TLE epoch observation values (Epoch: 2025-07-05T14:00:01.999Z)
Latitude
-36.08831°
Longitude
82.21552°
Altitude
318.872 km
Speed
7.717 km/s
True Right ascension
14h 24m 10s
True Declination
-35° 54' 51"
Sunlit
Object was in full shadow at epoch
Visualization orbit readout
Latitude
-34.8863°
Longitude
81.80356°
Altitude
321.01 km
Speed
7.715 km/s
Apparent Right ascension
18h 13m 41s
Apparent Declination
-60° 30' 00"
Sunlit
Object is in full shadow
Visualization observer readout
Local Sidereal Time
11:01:01
Azimuth
140.572° SSE
Elevation
-42.55°
Doppler factor
1
Orbital elements
Apogee altitude
307.934 km
Perigee altitude
302.871 km
Semi-major axis
6,683.539 km
Eccentricity
0.00038
Inclination
69.9953°
RAAN
231.3429°
Arg. of periapsis
277.4328°
True anomaly
Unknown
Mean anomaly
44.0074°
Eccentric anomaly
Unknown
Mean motion
3.97222 °/min
Orbital period
90.63 mins
BSTAR
-0.0044271
Loading maneuver chart data...
Loading SW <> Apogee altitude chart data...
Loading historical data...
Loading historical data...
Loading historical data...
Loading historical data...
Loading historical data...
Loading historical data...
Loading historical data...

STARLINK-34560 Visibility

Observer location: undefined°, undefined°

STARLINK-34560 is likely not visible in the next few days
Span
Click to sort rows by Start time (UTC) header in descending order
Start Az.
Max El. time (UTC)
Max El. Az.
Max El.
End time (UTC)
End Az.
|